Simultaneous Nadir Overpasses (SNOs) Predictions

Prediction of SNOs between NOAA-20 and PACE Satellite Orbit:

Table of predicted SNOs for the next 14.0 days since TLE Epoch: 11/9/2024
Index Date (NOAA-20) Time (NOAA-20) Lat,Lon (NOAA-20) SZA (NOAA-20 ) Date (PACE) Time (PACE) Lat,Lon (PACE) SZA (PACE ) Distance(km) Time Diff (sec)
1 11/09/2024 04:54:50 81.31, 33.35 103.68 11/09/2024 04:56:02 81.93, 33.72 103.84 69.59 72
2 11/09/2024 05:43:52 -79.77,-122.83 81.71 11/09/2024 05:43:33 -79.76,-122.69 81.73 3.06 19
3 11/11/2024 09:19:33 79.81, 2.90 98.96 11/11/2024 09:19:38 79.80, 3.02 98.94 2.66 5
4 11/13/2024 12:55:12 -79.85, 128.68 80.41 11/13/2024 12:55:41 -79.84, 128.73 80.43 1.12 29
5 11/13/2024 13:45:48 79.54, -61.31 99.10 11/13/2024 13:44:42 79.55, -61.46 99.14 3.16 66
6 11/15/2024 16:30:51 79.85,-105.24 100.15 11/15/2024 16:31:42 79.85,-105.38 100.15 2.88 51
7 11/15/2024 17:21:29 -79.65, 63.87 80.18 11/15/2024 17:20:45 -79.65, 63.84 80.16 0.60 44
8 11/17/2024 20:06:30 -79.89, 20.41 79.24 11/17/2024 20:07:42 -79.90, 20.29 79.25 2.43 72
9 11/17/2024 20:57:10 79.73,-170.72 100.49 11/17/2024 20:56:46 79.73,-170.72 100.50 0.34 24
10 11/20/2024 00:32:47 -79.72, -44.57 79.02 11/20/2024 00:32:43 -79.72, -44.67 79.01 2.02 4



Historial Predications of SNOs between NOAA-20 and PACE
